GW2364 Weather Reports


time (UTC)temp
F
wind
direction
speed
knots
gust
knots
rain 1hr
in
rain 24hr
in
rain mn
in
humidity
%
barometer
mb
20260905084503 78 247 0.0 1.7 0.00 0.00 0.00 89 1011.2
20260905083009 78 247 0.0 1.7 0.00 0.00 0.00 88 1011.3
20260905081503 78 250 0.0 3.5 0.00 0.00 0.00 88 1011.3
20260905080007 78 209 0.0 2.6 0.00 0.00 0.00 87 1011.4
20260905074503 78 257 0.0 2.6 0.00 0.00 0.00 87 1011.5
20260905073003 79 257 0.0 2.6 0.00 0.00 0.00 86 1011.5
20260905071503 79 60 0.0 3.5 0.00 0.00 0.00 86 1011.8
20260905070005 79 107 0.0 2.6 0.00 0.00 0.00 85 1011.8
20260905064504 79 113 0.0 3.5 0.00 0.00 0.00 84 1011.8
20260905063003 79 121 0.9 7.0 0.00 0.00 0.00 84 1011.8
20260905061504 80 117 0.9 5.2 0.00 0.00 0.00 82 1012.0
20260905060008 80 67 0.9 4.3 0.00 0.00 0.00 81 1012.0
20260905054506 80 63 0.9 5.2 0.00 0.00 0.00 80 1011.9
20260905053008 80 109 1.7 6.1 0.00 0.00 0.00 80 1011.9
20260905051506 81 71 1.7 6.1 0.00 0.00 0.00 78 1012.0
20260905050011 81 69 1.7 7.8 0.00 0.00 0.00 78 1012.1
20260905044509 81 113 1.7 7.0 0.00 0.00 0.00 77 1012.0
20260905043006 81 11 1.7 6.1 0.00 0.00 0.00 76 1011.9
20260905041507 82 106 1.7 7.0 0.00 0.00 0.00 75 1011.9
20260905040009 82 109 0.9 4.3 0.00 0.00 0.00 75 1011.9
20260905034511 82 98 0.9 4.3 0.00 0.00 0.00 74 1011.9
20260905033006 82 49 0.0 7.0 0.00 0.00 0.00 72 1011.8
20260905031505 83 70 0.0 2.6 0.00 0.00 0.00 71 1011.7
20260905030009 83 67 1.7 5.2 0.00 0.00 0.00 70 1011.6
20260905024508 83 130 0.9 3.5 0.00 0.00 0.00 70 1011.4
20260905023006 83 63 1.7 5.2 0.00 0.00 0.00 71 1011.3
20260905021505 83 94 0.0 1.7 0.00 0.00 0.00 71 1010.9
20260905020008 84 70 0.0 3.5 0.00 0.00 0.00 70 1010.9
20260905014505 84 77 0.9 4.3 0.00 0.00 0.00 69 1010.8
20260905013005 85 95 1.7 5.2 0.00 0.00 0.00 68 1010.6
20260905011506 85 80 1.7 5.2 0.00 0.00 0.00 67 1010.5
20260905010007 86 105 1.7 4.3 0.00 0.00 0.00 66 1010.4
20260905004507 86 104 1.7 7.0 0.00 0.00 0.00 63 1010.4
20260905003008 87 66 0.9 7.0 0.00 0.00 0.00 62 1010.1
20260905001505 88 49 2.6 7.0 0.00 0.00 0.00 61 1010.0
20260905000008 88 36 2.6 7.0 0.00 0.00 0.00 61 1009.9
20260904234506 89 43 2.6 7.8 0.00 0.00 0.00 59 1009.8
20260904233005 91 117 2.6 6.1 0.00 0.00 0.00 56 1009.7
20260904231506 93 53 0.9 7.8 0.00 0.00 0.00 46 1009.8
20260904230007 94 114 1.7 7.0 0.00 0.00 0.00 47 1009.9
20260904224505 94 246 0.9 4.3 0.00 0.00 0.00 48 1009.9
20260904223005 95 263 1.7 6.1 0.00 0.00 0.00 46 1010.1
20260904221506 95 93 2.6 6.1 0.00 0.00 0.00 45 1010.1
20260904220007 95 258 0.9 6.1 0.00 0.00 0.00 46 1010.1
20260904214505 94 103 1.7 6.1 0.00 0.00 0.00 52 1010.2
20260904213011 94 99 2.6 8.7 0.00 0.00 0.00 54 1010.4
20260904211504 93 5 3.5 8.7 0.00 0.00 0.00 55 1010.6
20260904210011 92 76 2.6 8.7 0.00 0.00 0.00 58 1010.7
20260904204505 91 45 2.6 7.8 0.00 0.00 0.00 60 1010.8
20260904203010 89 119 1.7 5.2 0.00 0.00 0.00 65 1011.1
20260904201504 89 51 3.5 7.0 0.00 0.00 0.00 67 1011.3
20260904200007 90 53 2.6 7.0 0.00 0.00 0.00 65 1011.3
20260904194506 89 94 2.6 7.0 0.00 0.00 0.00 66 1011.3
20260904193006 88 80 1.7 6.1 0.00 0.00 0.00 69 1011.5
20260904191505 88 71 1.7 6.1 0.00 0.00 0.00 69 1011.9
20260904190007 88 89 1.7 6.1 0.00 0.00 0.00 69 1012.1
20260904184504 89 92 1.7 7.0 0.00 0.00 0.00 69 1012.3
20260904183006 89 87 1.7 7.8 0.00 0.00 0.00 69 1012.5
20260904181518 89 59 2.6 7.0 0.00 0.00 0.00 67 1012.5
20260904180008 87 109 1.7 7.0 0.00 0.00 0.00 70 1012.6
20260904174505 86 116 0.9 5.2 0.00 0.00 0.00 71 1012.8
20260904173003 86 65 0.9 5.2 0.00 0.00 0.00 74 1013.0
20260904171503 85 221 0.9 3.5 0.00 0.00 0.00 75 1013.0
20260904170006 84 215 1.7 6.1 0.00 0.00 0.00 75 1012.9
20260904164505 85 225 0.0 7.0 0.00 0.00 0.00 77 1012.9
20260904163004 83 221 0.9 7.0 0.00 0.00 0.00 81 1012.9
20260904161504 82 232 1.7 4.3 0.00 0.00 0.00 84 1012.9
20260904160006 81 232 1.7 4.3 0.00 0.00 0.00 85 1012.8
20260904154504 80 232 0.9 6.1 0.00 0.00 0.00 86 1012.7
20260904153010 80 214 1.7 7.0 0.00 0.00 0.00 88 1012.7
20260904151504 79 229 0.9 3.5 0.00 0.00 0.00 89 1012.6
20260904150006 79 208 1.7 6.1 0.00 0.00 0.00 91 1012.6
20260904144505 79 240 1.7 4.3 0.00 0.00 0.00 92 1012.6
20260904143004 79 240 1.7 4.3 0.00 0.00 0.00 90 1012.6
20260904141507 80 244 0.9 2.6 0.00 0.00 0.00 88 1012.7
20260904140014 79 244 0.9 3.5 0.00 0.00 0.00 89 1012.7
20260904134504 79 94 0.0 1.7 0.00 0.00 0.00 90 1012.6
20260904133004 79 94 0.0 1.7 0.00 0.00 0.00 91 1012.5
20260904131503 79 94 0.0 0.9 0.00 0.00 0.00 90 1012.5
20260904130006 79 94 0.0 1.7 0.00 0.00 0.00 90 1012.4
20260904124509 78 89 0.0 3.5 0.00 0.00 0.00 90 1012.3
20260904123004 79 105 0.9 4.3 0.00 0.00 0.00 90 1012.1
20260904121503 79 109 1.7 4.3 0.00 0.00 0.00 89 1011.8
20260904120005 79 109 1.7 4.3 0.00 0.00 0.00 89 1011.3
20260904114505 79 109 2.6 7.0 0.00 0.00 0.00 89 1011.3
20260904113005 79 67 0.9 5.2 0.00 0.00 0.00 89 1011.2
20260904111503 79 107 0.0 3.5 0.00 0.00 0.00 89 1011.1
20260904110006 79 119 0.9 3.5 0.00 0.00 0.00 89 1011.2
20260904104504 79 105 0.0 1.7 0.00 0.00 0.00 88 1011.0
20260904103013 79 78 0.0 3.5 0.00 0.00 0.00 88 1010.9
20260904101505 79 109 0.0 1.7 0.00 0.00 0.00 88 1010.8
20260904100013 79 90 0.0 2.6 0.00 0.00 0.00 88 1010.8
20260904094503 79 222 0.0 1.7 0.00 0.00 0.00 87 1010.7
20260904093002 79 222 0.0 1.7 0.00 0.00 0.00 87 1010.6
20260904091503 79 165 0.0 6.1 0.00 0.00 0.00 87 1010.7
20260904090005 79 218 0.0 5.2 0.00 0.00 0.00 86 1010.6